Location: Anderson Grove Church
(35.0695°N, 89.2878°W)
Time: 23:43:08
(UTC+00:00)

Daily predictions for brighter satellites

Satellite Brightness Start Highest point End
(mag) Time Altitude Azimuth Time Altitude Azimuth Time Altitude Azimuth
Cosmos 1733 0.7 12:01:29 10° S 12:03:05 72° W 12:04:42 10° N
BREEZE-M DEB (TANK) 2.6 12:02:40 10° WSW 12:05:29 48° NW 12:07:49 10° NE
Cosmos 1626 Rocket 3.5 12:01:21 10° S 12:05:45 75° W 12:10:10 10° N
SL-16 R/B 2.2 12:04:01 10° NNW 12:09:38 68° WSW 12:15:14 10° S
Cosmos 1937 Rocket 4.3 12:08:50 10° NW 12:13:13 29° W 12:17:35 10° SSW
SAR-Lupe-4 4.4 12:14:35 10° NNE 12:18:05 56° E 12:21:34 10° S
ARIANE 5 R/B 3.1 12:17:00 10° NNE 12:22:12 65° ESE 12:27:21 10° S
IRIDIUM 104 4.4 12:17:43 10° SSW 12:22:50 58° W 12:27:59 10° N
COSMO-SKYMED 1 3.7 12:20:26 10° SSW 12:23:41 23° W 12:26:59 10° NW
ISS -0.4 12:21:47 10° SSE 12:23:52 16° SE 12:25:58 10° E
USA 267 4.1 12:20:51 10° NE 12:27:16 57° SE 12:33:38 10° SSW
Cosmos-2242 3.7 12:23:58 10° NNW 12:27:45 33° W 12:31:29 10° SSW
OAO 2 Rocket 3.6 12:22:57 10° WSW 12:28:07 75° SSE 12:33:11 10° E
UNK 3.7 23:04:20 10° NNE 23:08:55 81° ESE 23:13:27 10° S
Cosmos 1570 Rocket 4.0 23:06:36 10° NNW 23:11:57 84° ENE 23:17:14 10° SSE
Cosmos 836 Rocket 4.5 23:09:16 10° NNW 23:14:31 79° ENE 23:19:47 10° SSE
Cosmos 1743 2.2 23:17:00 10° N 23:20:13 60° E 23:23:24 10° SSE
Aureole 1 Rocket 4.4 23:22:06 10° SE 23:25:00 20° E 23:28:21 10° NE
Cosmos 2098 Rocket 3.8 23:22:35 10° SSW 23:26:14 52° W 23:30:34 10° N
Helios 1A Rocket 4.5 23:26:12 11° E 23:27:01 11° E 23:28:11 10° ESE
Cosmos 773 Rocket 4.0 23:22:15 10° NNW 23:27:30 82° ENE 23:32:44 10° SSE
Cosmos 1825 Rocket 4.3 23:24:50 10° NNE 23:28:37 29° ENE 23:32:22 10° SE
NOSS 2-3 (C) 3.2 23:27:21 10° SSW 23:30:52 50° ESE 23:34:01 11° NE
Cosmos 1758 Rocket 4.0 23:26:45 10° NNW 23:31:00 65° W 23:35:12 10° S
Cosmos 2297 Rocket 2.2 23:25:46 10° NNW 23:31:23 62° ENE 23:36:58 10° SSE
Cosmos 2151 2.8 23:28:32 10° N 23:32:42 71° E 23:36:50 10° SSE
Cosmos 990 Rocket 3.9 23:27:41 10° S 23:32:45 70° ESE 23:37:51 10° NNE
IRIDIUM 106 4.3 23:27:31 10° N 23:32:45 74° E 23:37:56 10° S
ARIANE 5 R/B 2.4 23:28:46 10° SSE 23:33:44 66° ENE 23:38:47 10° N
IRS-P3 4.3 23:30:34 10° SE 23:35:37 47° ENE 23:40:41 10° N
USA 238 DEB 3.7 23:30:35 10° S 23:36:16 51° ESE 23:42:20 10° NE
USA 238 3.7 23:30:42 10° S 23:36:23 50° ESE 23:42:25 10° NE
Cosmos 2058 Rocket 4.2 23:36:58 10° SE 23:40:32 24° E 23:43:31 13° NE
Cosmos 1933 3.3 23:40:32 10° S 23:44:21 80° W 23:48:11 10° N
SPOT 1/Viking Rocket 4.0 23:39:56 10° SE 23:44:42 38° ENE 23:49:29 10° N
SJ-12 3.6 23:42:59 10° SSE 23:46:44 84° ENE 23:50:32 10° N
Meteor 1-25 Rocket 4.2 23:43:22 10° N 23:49:09 67° E 23:54:50 10° SSE
BlueWalker 3 1.6 23:46:18 10° NW 23:49:55 74° NE 23:53:32 10° SE
Cosmos 1980 Rocket 2.4 23:44:42 10° S 23:50:09 51° ESE 23:55:10 12° NNE
Cosmos 1607 3.9 23:43:56 10° NNW 23:50:09 65° ENE 23:56:25 10° SE
SAR-Lupe-3 3.8 23:47:49 10° N 23:50:20 71° WNW 23:52:48 10° SSW
Hubble Space Telescope 2.7 23:50:22 10° SSW 23:52:55 17° SSE 23:55:12 11° SE
AQUARIUS 4.0 23:48:34 10° SSE 23:52:58 81° ENE 23:57:23 10° N
